Regional Weather Roundup
Issued by NWS

Home | Current Version | Previous Version | Text Only | Print | Product List | Glossary On
Versions: 1 2 3 4 5 6 7 8 9 10 11 12 13 14 15 16 17 18 19 20 21 22 23 24 25 26 27 28 29 30 31 32 33 34 35 36 37 38 39 40 41 42 43 44 45 46 47 48 49 50
701
ASPQ40 PGUM 191410
RWRPQ
WEATHER ROUNDUP FOR THE MARIANAS AND MICRONESIA
NATIONAL WEATHER SERVICE TIYAN GU
1200 AM CHST FRI APR 20 2018

GUZ001>004-191500-
MARIANA ISLANDS-

CITY           SKY/WX    TMP DP  RH WIND       PRES   REMARKS
GUAM AIRPORT   PTCLDY    82  75  78 E14       29.88F
ANDERSEN AFB   LGT RAIN  79  73  83 E13G23    29.88F
ROTA AIRPORT   NOT AVBL
TINIAN AP      NOT AVBL
SAIPAN AP      PTCLDY    79  73  83 E14       29.89S

$$

PMZ161-191500-
REPUBLIC OF PALAU-

CITY           SKY/WX    TMP DP  RH WIND       PRES   REMARKS
KOROR AP       MOCLDY    77  75  94 CALM      29.81R
KOROR WSO      MOCLDY    81  77  89 N6        29.82R

$$

PMZ171>174-191500-
FEDERATED STATES OF MICRONESIA-

CITY           SKY/WX    TMP DP  RH WIND       PRES   REMARKS
YAP AIRPORT    MOCLDY    81  75  83 VRB5      29.83S
CHUUK AP       LGT RAIN  77  77 100 VRB6      29.81F
POHNPEI AP     NOT AVBL
POHNPEI WSO    CLOUDY    82  75  78 NE6       29.79F
KOSRAE AP      NOT AVBL

$$

PMZ181-191500-
REPUBLIC OF THE MARSHALL ISLANDS-

CITY           SKY/WX    TMP DP  RH WIND       PRES   REMARKS
KWAJALEIN AP   CLOUDY    82  73  74 NE18      29.73S
MAJURO AP      NOT AVBL
MAJURO WSO     MOCLDY    82  77  83 E10       29.70F HX  91

$$





USA.gov is the U.S. government's official web portal to all federal, state and local government web resources and services.